TimeCDT,TemperatureF,Dew PointF,Humidity,Sea Level PressureIn,VisibilityMPH,Wind Direction,Wind SpeedMPH,Gust SpeedMPH,PrecipitationIn,Events,Conditions,WindDirDegrees,DateUTC
1:53 AM,69.1,57.0,65,30.08,10.0,ENE,6.9,-,N/A,,Clear,70,2011-10-08 06:53:00
2:53 AM,68.0,57.9,70,30.08,10.0,ENE,5.8,-,N/A,,Clear,60,2011-10-08 07:53:00
3:53 AM,64.9,57.9,78,30.08,10.0,NNE,4.6,-,N/A,,Clear,30,2011-10-08 08:53:00
4:53 AM,64.0,57.9,80,30.09,10.0,NE,3.5,-,N/A,,Clear,40,2011-10-08 09:53:00
5:53 AM,62.1,57.0,84,30.10,10.0,NE,4.6,-,N/A,,Clear,40,2011-10-08 10:53:00
6:53 AM,61.0,57.0,87,30.12,10.0,NE,3.5,-,N/A,,Clear,50,2011-10-08 11:53:00
7:53 AM,63.0,57.9,84,30.12,10.0,NE,5.8,-,N/A,,Clear,40,2011-10-08 12:53:00
8:53 AM,66.9,59.0,76,30.13,10.0,ENE,5.8,-,N/A,,Clear,70,2011-10-08 13:53:00
9:53 AM,73.0,59.0,61,30.14,10.0,East,8.1,-,N/A,,Clear,100,2011-10-08 14:53:00
10:53 AM,77.0,57.0,50,30.13,10.0,ESE,8.1,-,N/A,,Clear,110,2011-10-08 15:53:00
1:53 PM,84.0,57.0,40,30.07,10.0,ESE,6.9,-,N/A,,Clear,120,2011-10-08 18:53:00
2:53 PM,86.0,55.9,36,30.03,10.0,East,11.5,-,N/A,,Clear,80,2011-10-08 19:53:00
3:53 PM,87.1,54.0,32,30.01,10.0,ENE,11.5,20.7,N/A,,Clear,70,2011-10-08 20:53:00
4:53 PM,87.1,51.1,29,29.99,10.0,ESE,8.1,-,N/A,,Clear,120,2011-10-08 21:53:00
5:53 PM,84.9,52.0,32,29.98,10.0,East,9.2,-,N/A,,Clear,100,2011-10-08 22:53:00
6:53 PM,81.0,52.0,36,29.99,10.0,East,6.9,-,N/A,,Clear,80,2011-10-08 23:53:00
7:53 PM,79.0,54.0,42,30.01,10.0,ENE,8.1,-,N/A,,Clear,70,2011-10-09 00:53:00
8:53 PM,77.0,55.9,48,30.03,10.0,ENE,8.1,-,N/A,,Clear,60,2011-10-09 01:53:00
9:53 PM,77.0,57.0,50,30.04,10.0,ENE,11.5,-,N/A,,Clear,70,2011-10-09 02:53:00
10:53 PM,75.9,57.0,52,30.04,10.0,East,9.2,20.7,N/A,,Clear,80,2011-10-09 03:53:00
11:53 PM,73.9,57.9,57,30.06,10.0,ENE,8.1,-,N/A,,Clear,70,2011-10-09 04:53:00